Regional Weather Roundup
Issued by NWS Goodland, KS

Home | Current Version | Previous Version | Graphics & Text | Print | Product List | Glossary On
Versions: 1 2 3 4 5 6 7 8 9 10 11 12 13 14 15 16 17 18 19 20 21 22 23 24 25 26 27 28 29 30 31 32 33 34 35 36 37 38 39 40 41 42 43 44 45 46 47 48 49 50
000
ASUS43 KGLD 271259
RWRGLD

GOODLAND FORECAST AREA HOURLY WEATHER ROUNDUP
NATIONAL WEATHER SERVICE GOODLAND KS
600 AM MST SAT DEC 27 2014

...OFFICIAL OBSERVATIONS...

CITY           SKY/WX    TMP DP  RH WIND       PRES   REMARKS
GOODLAND KS    PTCLDY     6   3  87 W10       30.20R WCI  -9
HILL CITY KS   MOCLDY     9   5  84 W8        30.27R
IMPERIAL NEB   CLOUDY    13   8  81 W8        30.18R
MCCOOK NEB     CLOUDY     7   4  87 SW10      30.23R WCI  -8
AKRON CO       PTCLDY     5   3  91 W20       30.12R WCI -15
BURLINGTON CO  PTCLDY     5   1  83 W8        30.18R
LIMON CO       PTCLDY    -1  -5  82 NW5       30.12R
$$

...UNOFFICIAL OBSERVATIONS...

CITY           SKY/WX    TMP DP  RH WIND       PRES   REMARKS
COLBY KS       CLEAR      5   3  92 SW10      30.24R WCI -10
NORTON KS      CLOUDY    10   7  85 W7        30.24R
SHARON SPRINGS   N/A      2  -1  87 W6          N/A
TRIBUNE KS     PTCLDY     5   3  92 W8        30.24R
KIT CARSON CO    N/A      3  -1  83 MISG        N/A
$$


USA.gov is the U.S. government's official web portal to all federal, state and local government web resources and services.